Погода в Купае

Россия / Курганская область     55°38′53″N   63°38′53″E
темп.,
°C
ветер,
м/с
пор.,
м/с
влажн.,
%
обл.,
%
осадки,
мм/ч
давл.,
гПа
погр.,
м
8 мая, сб
сб823:00+13ююз22475 0.0 102014
02:00+11ююз33525 0.0 102027
05:00+10ююз225160 0.0 102015
08:00+15ю234171 0.0 1020235
11:00+19ююв3329100 0.0 10192054
14:00+19ююз2227100 0.0 10182227
17:00+20ссз1225100 0.0 10172103
20:00+16с2236100 0.0 101611
9 мая, вс
вс923:00+14с2236100 0.0 101611
02:00+13ссв3343100 0.0 101628
05:00+12ссв3346100 0.0 101638
08:00+15св3544100 0.0 1017242
11:00+20всв4431100 0.0 10161174
14:00+20всв2434100 0.0 10161024
17:00+20ссв463499 0.0 1016666
20:00+17всв3545100 0.0 101797
10 мая, пн
пн1023:00+15всв365098 0.0 1018139
02:00+13ссв2261100 0.0 101911
05:00+11всв487266 0.0 1021123
08:00+16всв575035 0.0 1022496
11:00+19всв573476 0.0 10231363
14:00+20всв663380 0.0 10231671
17:00+20всв453188 0.0 10221824
20:00+17всв224460 0.0 102311
11 мая, вт
вт1123:00+13ю11495 0.0 102310
02:00+12юз335146 0.0 102319
05:00+11зюз2255100 0.0 102319
08:00+15юз3449100 0.0 1023192
11:00+19з4437100 0.0 1023948
14:00+17сз5556100 0.1 1023628
17:00+13зсз24845 0.4 1023244
20:00+13с5972100 0.5 1024539
12 мая, ср
ср1223:00+8ссз49895 0.5 1025221
02:00+7ссз511820 0.0 1025295
05:00+6ссз5138233 0.0 1026346
08:00+10ссз6115998 0.0 1026649
11:00+15ссз6837100 0.0 10251500
14:00+17ссз563366 0.0 10242042
17:00+13сз6756100 0.0 1024551
20:00+10ссз477331 0.0 1024309